Location: The Saddle
(36.8333°N, 80.3417°W)
Time: 08:49:50
(UTC-05:00)

Vanguard 2 Rocket - Pass Details

Date: 14 December 2023
Orbit: 555 x 3309 km, 32.9° (Epoch: 02 March)

Event Time Altitude Azimuth Distance (km) Brightness Sun altitude
Rises 16:21:49 0° 278° (W) 6,164 11.9 6.6°
Reaches altitude 10° 16:25:26 10° 276° (W) 5,433 11.7 6.0°
Maximum altitude 16:43:03 67° 199° (SSW) 3,461 10.2 3.1°
Drops below altitude 10° 17:02:31 10° 122° (ESE) 5,909 10.8 -0.3°
Sets 17:06:40 0° 120° (ESE) 6,703 11.0 -1.0°
